User: anonymous   Login
Location: Unspecified
(0.0000°N, 0.0000°E)
Time: 21:47:03
(UTC+00:00)
Language:

CP3 - Orbit

View from above orbital plane
View from above orbital plane
View from above satellite
View from above satellite

Ground track
Ground track

The orbit data is extracted from the following two-line orbital elements,

1 31129U 07012N   23083.36673171  .00011312  00000-0  22998-2 0  9996
2 31129  98.3083  30.0756 0093589 137.9921 222.8505 14.58491263846191
Epoch (UTC): 24 March 2023 08:48:05
Eccentricity: 0.0093589
inclination: 98.3083°
perigee height: 632 km
apogee height: 764 km
right ascension of ascending node: 30.0756°
argument of perigee: 137.9921°
revolutions per day: 14.58491263
mean anomaly at epoch: 222.8505°
orbit number at epoch: 84619

The dashed part of the orbit path shows where the satellite is in the earth's shadow,  

DLR